Location: Unspecified
(0.0000°N, 0.0000°E)
Time: 15:13:09
(UTC+00:00)

NOSS 3-1 (A) - Pass Details

Date: 24 April 2019
Orbit: 778 x 1434 km, 63.4° (Epoch: 13 May)

Event Time Altitude Azimuth Distance (km) Brightness Sun altitude
Rises 03:37:50 0° 0° (N) 4,368 7.1 -34.1°
Reaches altitude 10° 03:41:12 10° 12° (NNE) 3,458 6.6 -33.3°
Maximum altitude 03:48:17 28° 67° (ENE) 2,413 6.0 -31.6°
Drops below altitude 10° 03:55:26 10° 122° (ESE) 3,518 6.9 -29.9°
Sets 03:58:51 0° 133° (SE) 4,456 7.4 -29.0°
